Time,TemperatureF,DewpointF,PressureIn,WindDirection,WindDirectionDegrees,WindSpeedMPH,WindSpeedGustMPH,Humidity,HourlyPrecipIn,Conditions,Clouds,dailyrainin,SoftwareType,DateUTC
2013-03-20 00:02:00,33.0,31.0,30.27,South,186,0.0,-999.0,92,-99.99,,,-99.99,,2013-03-20 05:02:00,
2013-03-20 00:12:00,32.0,30.0,30.28,South,186,0.0,-999.0,92,-99.99,,,-99.99,,2013-03-20 05:12:00,
2013-03-20 00:22:00,32.0,30.0,30.28,South,186,0.0,-999.0,92,-99.99,,,-99.99,,2013-03-20 05:22:00,
2013-03-20 00:32:00,32.0,30.0,30.28,South,186,0.0,-999.0,92,-99.99,,,-99.99,,2013-03-20 05:32:00,
2013-03-20 00:42:00,32.0,30.0,30.28,South,186,0.0,-999.0,92,-99.99,,,-99.99,,2013-03-20 05:42:00,
2013-03-20 00:52:00,31.0,29.0,30.29,NNW,334,1.0,-999.0,92,-99.99,,,-99.99,,2013-03-20 05:52:00,
2013-03-20 01:02:00,32.0,30.0,30.30,NNW,342,5.0,-999.0,93,-99.99,,,-99.99,,2013-03-20 06:02:00,
2013-03-20 01:12:00,32.0,30.0,30.30,NNW,342,5.0,-999.0,93,-99.99,,,-99.99,,2013-03-20 06:12:00,
2013-03-20 01:22:00,32.0,30.0,30.31,North,5,5.0,-999.0,92,-99.99,,,-99.99,,2013-03-20 06:22:00,
2013-03-20 01:32:00,32.0,29.0,30.31,North,5,5.0,-999.0,89,-99.99,,,-99.99,,2013-03-20 06:32:00,
2013-03-20 01:42:00,32.0,29.0,30.31,North,5,5.0,-999.0,89,-99.99,,,-99.99,,2013-03-20 06:42:00,
2013-03-20 02:02:00,31.0,27.0,30.32,NNE,16,5.0,-999.0,84,-99.99,,,-99.99,,2013-03-20 07:02:00,
2013-03-20 02:12:00,31.0,27.0,30.32,NNE,16,5.0,-999.0,84,-99.99,,,-99.99,,2013-03-20 07:12:00,
2013-03-20 02:22:00,30.0,25.0,30.33,NNE,15,6.0,-999.0,82,-99.99,,,-99.99,,2013-03-20 07:22:00,
2013-03-20 02:32:00,30.0,25.0,30.34,North,10,6.0,-999.0,81,-99.99,,,-99.99,,2013-03-20 07:32:00,
2013-03-20 02:42:00,30.0,25.0,30.34,North,10,6.0,-999.0,81,-99.99,,,-99.99,,2013-03-20 07:42:00,
2013-03-20 02:52:00,29.0,24.0,30.35,North,10,3.0,-999.0,80,-99.99,,,-99.99,,2013-03-20 07:52:00,
2013-03-20 03:02:00,29.0,24.0,30.36,North,10,0.0,-999.0,80,-99.99,,,-99.99,,2013-03-20 08:02:00,
2013-03-20 03:12:00,29.0,24.0,30.36,North,10,0.0,-999.0,80,-99.99,,,-99.99,,2013-03-20 08:12:00,
2013-03-20 03:22:00,27.0,21.0,30.36,North,355,0.0,-999.0,79,-99.99,,,-99.99,,2013-03-20 08:22:00,
2013-03-20 03:32:00,27.0,21.0,30.37,North,355,1.0,-999.0,79,-99.99,,,-99.99,,2013-03-20 08:32:00,
2013-03-20 03:42:00,27.0,21.0,30.37,North,355,1.0,-999.0,79,-99.99,,,-99.99,,2013-03-20 08:42:00,
2013-03-20 03:52:00,27.0,20.0,30.36,NNE,13,4.0,-999.0,75,-99.99,,,-99.99,,2013-03-20 08:52:00,
2013-03-20 04:02:00,28.0,20.0,30.36,North,11,3.0,-999.0,73,-99.99,,,-99.99,,2013-03-20 09:02:00,
2013-03-20 04:12:00,28.0,20.0,30.36,North,11,3.0,-999.0,73,-99.99,,,-99.99,,2013-03-20 09:12:00,
2013-03-20 04:22:00,28.0,21.0,30.36,North,5,1.0,-999.0,74,-99.99,,,-99.99,,2013-03-20 09:22:00,
2013-03-20 04:33:00,28.0,21.0,30.36,North,5,0.0,-999.0,76,-99.99,,,-99.99,,2013-03-20 09:33:00,
2013-03-20 04:43:00,28.0,21.0,30.36,North,5,0.0,-999.0,76,-99.99,,,-99.99,,2013-03-20 09:43:00,
2013-03-20 04:52:00,27.0,20.0,30.36,North,5,0.0,-999.0,76,-99.99,,,-99.99,,2013-03-20 09:52:00,
2013-03-20 05:03:00,27.0,20.0,30.37,North,5,0.0,-999.0,76,-99.99,,,-99.99,,2013-03-20 10:03:00,
2013-03-20 05:12:00,27.0,20.0,30.37,North,5,0.0,-999.0,76,-99.99,,,-99.99,,2013-03-20 10:12:00,
2013-03-20 05:23:00,27.0,20.0,30.38,North,360,4.0,-999.0,75,-99.99,,,-99.99,,2013-03-20 10:23:00,
2013-03-20 05:32:00,26.0,19.0,30.37,North,360,5.0,-999.0,75,-99.99,,,-99.99,,2013-03-20 10:32:00,
2013-03-20 05:42:00,26.0,19.0,30.37,North,360,5.0,-999.0,75,-99.99,,,-99.99,,2013-03-20 10:42:00,
2013-03-20 05:52:00,26.0,19.0,30.39,North,9,4.0,-999.0,76,-99.99,,,-99.99,,2013-03-20 10:52:00,
2013-03-20 06:03:00,25.0,18.0,30.40,NNE,14,4.0,-999.0,75,-99.99,,,-99.99,,2013-03-20 11:03:00,
2013-03-20 06:12:00,25.0,18.0,30.40,NNE,14,4.0,-999.0,75,-99.99,,,-99.99,,2013-03-20 11:12:00,
2013-03-20 06:22:00,24.0,17.0,30.40,NNE,17,4.0,-999.0,74,-99.99,,,-99.99,,2013-03-20 11:22:00,
2013-03-20 06:32:00,24.0,17.0,30.41,North,9,2.0,-999.0,75,-99.99,,,-99.99,,2013-03-20 11:32:00,
2013-03-20 06:42:00,24.0,17.0,30.41,North,9,2.0,-999.0,75,-99.99,,,-99.99,,2013-03-20 11:42:00,
2013-03-20 06:52:00,22.0,15.0,30.41,NNE,15,2.0,-999.0,75,-99.99,,,-99.99,,2013-03-20 11:52:00,
2013-03-20 07:02:00,21.0,14.0,30.41,NNE,15,4.0,-999.0,74,-99.99,,,-99.99,,2013-03-20 12:02:00,
2013-03-20 07:12:00,21.0,14.0,30.41,NNE,15,4.0,-999.0,74,-99.99,,,-99.99,,2013-03-20 12:12:00,
2013-03-20 07:22:00,21.0,14.0,30.42,NNE,15,3.0,-999.0,74,-99.99,,,-99.99,,2013-03-20 12:22:00,
2013-03-20 07:32:00,20.0,13.0,30.42,NNE,15,0.0,-999.0,75,-99.99,,,-99.99,,2013-03-20 12:32:00,
2013-03-20 07:42:00,20.0,13.0,30.42,NNE,15,0.0,-999.0,75,-99.99,,,-99.99,,2013-03-20 12:42:00,
2013-03-20 07:52:00,20.0,14.0,30.42,NNE,15,0.0,-999.0,76,-99.99,,,-99.99,,2013-03-20 12:52:00,
2013-03-20 08:03:00,19.0,13.0,30.43,NNE,15,0.0,-999.0,78,-99.99,,,-99.99,,2013-03-20 13:03:00,
2013-03-20 08:12:00,19.0,13.0,30.43,NNE,15,0.0,-999.0,78,-99.99,,,-99.99,,2013-03-20 13:12:00,
2013-03-20 08:22:00,19.0,14.0,30.43,NNE,15,0.0,-999.0,79,-99.99,,,-99.99,,2013-03-20 13:22:00,
2013-03-20 08:32:00,19.0,14.0,30.44,NNE,14,0.0,-999.0,79,-99.99,,,-99.99,,2013-03-20 13:32:00,
2013-03-20 08:42:00,19.0,14.0,30.44,NNE,14,0.0,-999.0,79,-99.99,,,-99.99,,2013-03-20 13:42:00,
2013-03-20 08:52:00,20.0,15.0,30.44,NNE,14,0.0,-999.0,79,-99.99,,,-99.99,,2013-03-20 13:52:00,
2013-03-20 09:03:00,21.0,15.0,30.45,North,355,3.0,-999.0,77,-99.99,,,-99.99,,2013-03-20 14:03:00,
2013-03-20 09:12:00,21.0,15.0,30.45,North,355,3.0,-999.0,77,-99.99,,,-99.99,,2013-03-20 14:12:00,
2013-03-20 09:23:00,22.0,16.0,30.45,North,5,5.0,-999.0,76,-99.99,,,-99.99,,2013-03-20 14:23:00,
2013-03-20 09:33:00,23.0,16.0,30.45,North,5,5.0,-999.0,75,-99.99,,,-99.99,,2013-03-20 14:33:00,
2013-03-20 09:42:00,23.0,16.0,30.45,North,5,5.0,-999.0,75,-99.99,,,-99.99,,2013-03-20 14:42:00,
2013-03-20 09:52:00,24.0,17.0,30.45,North,5,4.0,-999.0,74,-99.99,,,-99.99,,2013-03-20 14:52:00,
2013-03-20 10:02:00,25.0,18.0,30.45,NNE,30,3.0,-999.0,73,-99.99,,,-99.99,,2013-03-20 15:02:00,
2013-03-20 10:12:00,25.0,18.0,30.45,NNE,26,2.0,-999.0,73,-99.99,,,-99.99,,2013-03-20 15:12:00,
2013-03-20 10:22:00,25.0,18.0,30.45,NNE,26,2.0,-999.0,73,-99.99,,,-99.99,,2013-03-20 15:22:00,
2013-03-20 10:33:00,26.0,18.0,30.44,North,10,4.0,-999.0,70,-99.99,,,-99.99,,2013-03-20 15:33:00,
2013-03-20 10:43:00,26.0,18.0,30.44,North,10,4.0,-999.0,70,-99.99,,,-99.99,,2013-03-20 15:43:00,
2013-03-20 10:52:00,27.0,19.0,30.45,North,5,2.0,-999.0,71,-99.99,,,-99.99,,2013-03-20 15:52:00,
2013-03-20 11:03:00,27.0,17.0,30.45,North,5,3.0,-999.0,66,-99.99,,,-99.99,,2013-03-20 16:03:00,
2013-03-20 11:12:00,27.0,17.0,30.45,North,5,3.0,-999.0,66,-99.99,,,-99.99,,2013-03-20 16:12:00,
2013-03-20 11:23:00,27.0,16.0,30.45,North,5,5.0,-999.0,64,-99.99,,,-99.99,,2013-03-20 16:23:00,
2013-03-20 11:33:00,28.0,18.0,30.44,North,360,3.0,-999.0,67,-99.99,,,-99.99,,2013-03-20 16:33:00,
2013-03-20 11:43:00,28.0,18.0,30.44,North,360,3.0,-999.0,67,-99.99,,,-99.99,,2013-03-20 16:43:00,
2013-03-20 11:52:00,29.0,19.0,30.44,North,5,3.0,-999.0,66,-99.99,,,-99.99,,2013-03-20 16:52:00,
2013-03-20 12:03:00,29.0,17.0,30.44,North,5,3.0,-999.0,61,-99.99,,,-99.99,,2013-03-20 17:03:00,
2013-03-20 12:12:00,29.0,17.0,30.44,North,5,3.0,-999.0,61,-99.99,,,-99.99,,2013-03-20 17:12:00,
2013-03-20 12:22:00,29.0,15.0,30.44,North,10,4.0,-999.0,56,-99.99,,,-99.99,,2013-03-20 17:22:00,
2013-03-20 12:32:00,29.0,15.0,30.44,North,10,4.0,-999.0,56,-99.99,,,-99.99,,2013-03-20 17:32:00,
2013-03-20 12:42:00,29.0,15.0,30.44,North,10,4.0,-999.0,56,-99.99,,,-99.99,,2013-03-20 17:42:00,
2013-03-20 12:52:00,30.0,15.0,30.43,NNE,33,3.0,-999.0,54,-99.99,,,-99.99,,2013-03-20 17:52:00,
2013-03-20 13:02:00,32.0,17.0,30.42,NNE,14,3.0,-999.0,53,-99.99,,,-99.99,,2013-03-20 18:02:00,
2013-03-20 13:12:00,32.0,17.0,30.42,NNE,14,3.0,-999.0,53,-99.99,,,-99.99,,2013-03-20 18:12:00,
2013-03-20 13:22:00,31.0,14.0,30.42,North,355,2.0,-999.0,48,-99.99,,,-99.99,,2013-03-20 18:22:00,
2013-03-20 13:33:00,31.0,15.0,30.41,North,355,2.0,-999.0,50,-99.99,,,-99.99,,2013-03-20 18:33:00,
2013-03-20 13:42:00,31.0,15.0,30.41,North,355,2.0,-999.0,50,-99.99,,,-99.99,,2013-03-20 18:42:00,
2013-03-20 13:52:00,32.0,15.0,30.40,NNW,348,1.0,-999.0,50,-99.99,,,-99.99,,2013-03-20 18:52:00,
2013-03-20 14:02:00,32.0,15.0,30.40,NNE,24,0.0,-999.0,49,-99.99,,,-99.99,,2013-03-20 19:02:00,
2013-03-20 14:12:00,32.0,15.0,30.40,NNE,24,0.0,-999.0,49,-99.99,,,-99.99,,2013-03-20 19:12:00,
2013-03-20 14:22:00,33.0,13.0,30.39,NNE,13,2.0,-999.0,44,-99.99,,,-99.99,,2013-03-20 19:22:00,
2013-03-20 14:32:00,34.0,14.0,30.37,North,355,2.0,-999.0,43,-99.99,,,-99.99,,2013-03-20 19:32:00,
2013-03-20 14:42:00,34.0,14.0,30.37,North,355,2.0,-999.0,43,-99.99,,,-99.99,,2013-03-20 19:42:00,
2013-03-20 14:52:00,34.0,12.0,30.36,NNE,21,1.0,-999.0,39,-99.99,,,-99.99,,2013-03-20 19:52:00,
2013-03-20 15:02:00,35.0,14.0,30.34,North,10,1.0,-999.0,41,-99.99,,,-99.99,,2013-03-20 20:02:00,
2013-03-20 15:13:00,35.0,14.0,30.34,North,10,1.0,-999.0,41,-99.99,,,-99.99,,2013-03-20 20:13:00,
2013-03-20 15:22:00,37.0,14.0,30.33,North,5,3.0,-999.0,38,-99.99,,,-99.99,,2013-03-20 20:22:00,
2013-03-20 15:32:00,36.0,13.0,30.32,NNW,327,1.0,-999.0,38,-99.99,,,-99.99,,2013-03-20 20:32:00,
2013-03-20 15:42:00,36.0,13.0,30.32,NNW,327,1.0,-999.0,38,-99.99,,,-99.99,,2013-03-20 20:42:00,
2013-03-20 15:52:00,37.0,11.0,30.31,North,349,4.0,-999.0,33,-99.99,,,-99.99,,2013-03-20 20:52:00,
2013-03-20 16:02:00,37.0,12.0,30.30,North,5,2.0,-999.0,35,-99.99,,,-99.99,,2013-03-20 21:02:00,
2013-03-20 16:12:00,37.0,12.0,30.30,North,5,2.0,-999.0,35,-99.99,,,-99.99,,2013-03-20 21:12:00,
2013-03-20 16:22:00,38.0,13.0,30.29,North,360,1.0,-999.0,35,-99.99,,,-99.99,,2013-03-20 21:22:00,
2013-03-20 16:33:00,39.0,12.0,30.29,North,5,5.0,-999.0,33,-99.99,,,-99.99,,2013-03-20 21:33:00,
2013-03-20 16:42:00,39.0,12.0,30.29,North,5,5.0,-999.0,33,-99.99,,,-99.99,,2013-03-20 21:42:00,
2013-03-20 16:52:00,40.0,13.0,30.28,North,5,3.0,-999.0,32,-99.99,,,-99.99,,2013-03-20 21:52:00,
2013-03-20 17:03:00,39.0,12.0,30.27,NNE,17,1.0,-999.0,32,-99.99,,,-99.99,,2013-03-20 22:03:00,
2013-03-20 17:12:00,39.0,12.0,30.27,NNE,17,1.0,-999.0,32,-99.99,,,-99.99,,2013-03-20 22:12:00,
2013-03-20 17:23:00,40.0,13.0,30.26,North,5,3.0,-999.0,33,-99.99,,,-99.99,,2013-03-20 22:23:00,
2013-03-20 17:33:00,39.0,12.0,30.25,North,355,2.0,-999.0,33,-99.99,,,-99.99,,2013-03-20 22:33:00,
2013-03-20 17:42:00,39.0,12.0,30.25,North,355,2.0,-999.0,33,-99.99,,,-99.99,,2013-03-20 22:42:00,
2013-03-20 17:52:00,39.0,14.0,30.24,NE,51,0.0,-999.0,35,-99.99,,,-99.99,,2013-03-20 22:52:00,
2013-03-20 18:02:00,39.0,12.0,30.24,NNE,32,1.0,-999.0,33,-99.99,,,-99.99,,2013-03-20 23:02:00,
2013-03-20 18:12:00,39.0,12.0,30.24,NNE,32,1.0,-999.0,33,-99.99,,,-99.99,,2013-03-20 23:12:00,
2013-03-20 18:22:00,39.0,14.0,30.23,NNE,26,0.0,-999.0,35,-99.99,,,-99.99,,2013-03-20 23:22:00,
2013-03-20 18:32:00,39.0,12.0,30.23,North,11,2.0,-999.0,33,-99.99,,,-99.99,,2013-03-20 23:32:00,
2013-03-20 18:42:00,39.0,12.0,30.23,North,11,2.0,-999.0,33,-99.99,,,-99.99,,2013-03-20 23:42:00,
2013-03-20 18:52:00,39.0,13.0,30.23,NE,49,0.0,-999.0,34,-99.99,,,-99.99,,2013-03-20 23:52:00,
2013-03-20 19:02:00,38.0,13.0,30.22,NNE,30,0.0,-999.0,35,-99.99,,,-99.99,,2013-03-21 00:02:00,
2013-03-20 19:12:00,38.0,13.0,30.22,NNE,30,0.0,-999.0,35,-99.99,,,-99.99,,2013-03-21 00:12:00,
2013-03-20 19:23:00,37.0,13.0,30.22,NNE,30,0.0,-999.0,36,-99.99,,,-99.99,,2013-03-21 00:23:00,
2013-03-20 19:32:00,35.0,12.0,30.21,NNE,30,0.0,-999.0,38,-99.99,,,-99.99,,2013-03-21 00:32:00,
2013-03-20 19:42:00,35.0,12.0,30.21,NNE,30,0.0,-999.0,38,-99.99,,,-99.99,,2013-03-21 00:42:00,
2013-03-20 19:52:00,33.0,11.0,30.21,NNE,30,0.0,-999.0,39,-99.99,,,-99.99,,2013-03-21 00:52:00,
2013-03-20 20:02:00,32.0,11.0,30.21,NNE,30,0.0,-999.0,41,-99.99,,,-99.99,,2013-03-21 01:02:00,
2013-03-20 20:12:00,32.0,11.0,30.21,NNE,30,0.0,-999.0,41,-99.99,,,-99.99,,2013-03-21 01:12:00,
2013-03-20 20:22:00,31.0,11.0,30.20,NNE,30,0.0,-999.0,43,-99.99,,,-99.99,,2013-03-21 01:22:00,
2013-03-20 20:32:00,29.0,10.0,30.20,NNE,30,0.0,-999.0,44,-99.99,,,-99.99,,2013-03-21 01:32:00,
2013-03-20 20:42:00,29.0,10.0,30.20,NNE,30,0.0,-999.0,44,-99.99,,,-99.99,,2013-03-21 01:42:00,
2013-03-20 20:52:00,29.0,12.0,30.21,NNE,30,0.0,-999.0,49,-99.99,,,-99.99,,2013-03-21 01:52:00,
2013-03-20 21:02:00,28.0,12.0,30.20,NNE,30,0.0,-999.0,51,-99.99,,,-99.99,,2013-03-21 02:02:00,
2013-03-20 21:12:00,28.0,12.0,30.20,NNE,30,0.0,-999.0,51,-99.99,,,-99.99,,2013-03-21 02:12:00,
2013-03-20 21:22:00,27.0,13.0,30.20,NNE,30,0.0,-999.0,56,-99.99,,,-99.99,,2013-03-21 02:22:00,
2013-03-20 21:32:00,27.0,14.0,30.20,NNE,30,0.0,-999.0,57,-99.99,,,-99.99,,2013-03-21 02:32:00,
2013-03-20 21:42:00,27.0,14.0,30.20,NNE,30,0.0,-999.0,57,-99.99,,,-99.99,,2013-03-21 02:42:00,
2013-03-20 21:51:00,27.0,14.0,30.20,NNE,30,0.0,-999.0,57,-99.99,,,-99.99,,2013-03-21 02:51:00,
2013-03-20 22:02:00,25.0,13.0,30.20,NNE,30,0.0,-999.0,61,-99.99,,,-99.99,,2013-03-21 03:02:00,
2013-03-20 22:12:00,25.0,13.0,30.20,NNE,30,0.0,-999.0,61,-99.99,,,-99.99,,2013-03-21 03:12:00,
2013-03-20 22:22:00,25.0,13.0,30.19,NNE,30,0.0,-999.0,61,-99.99,,,-99.99,,2013-03-21 03:22:00,
2013-03-20 22:33:00,24.0,14.0,30.19,NNE,30,0.0,-999.0,65,-99.99,,,-99.99,,2013-03-21 03:33:00,
2013-03-20 22:43:00,24.0,14.0,30.19,NNE,30,0.0,-999.0,65,-99.99,,,-99.99,,2013-03-21 03:43:00,
2013-03-20 22:53:00,23.0,14.0,30.19,NNE,30,0.0,-999.0,68,-99.99,,,-99.99,,2013-03-21 03:53:00,
2013-03-20 23:03:00,21.0,13.0,30.19,NNE,30,0.0,-999.0,70,-99.99,,,-99.99,,2013-03-21 04:03:00,
2013-03-20 23:13:00,21.0,13.0,30.19,NNE,30,0.0,-999.0,70,-99.99,,,-99.99,,2013-03-21 04:13:00,
2013-03-20 23:23:00,21.0,14.0,30.19,NNE,30,0.0,-999.0,73,-99.99,,,-99.99,,2013-03-21 04:23:00,
2013-03-20 23:33:00,20.0,13.0,30.18,NNE,30,0.0,-999.0,74,-99.99,,,-99.99,,2013-03-21 04:33:00,
2013-03-20 23:43:00,20.0,13.0,30.18,NNE,30,0.0,-999.0,74,-99.99,,,-99.99,,2013-03-21 04:43:00,
2013-03-20 23:52:00,20.0,14.0,30.18,NNE,30,0.0,-999.0,76,-99.99,,,-99.99,,2013-03-21 04:52:00,